sat.trackr.live / text

‹ back to catalog

STARLINK-34977

NORAD 65245 · 2025-179L

PAYLOAD ACTIVE UNKNOWN

§ Identity

Operator
Country
US
Launch date
2025-08-18
Launch site
AFWTR
Launch vehicle
Mass (kg)
RCS (m²)

Purposes: comms

External: N2YO · Heavens-Above · Gunter

§ Orbital elements

Epoch: 2026-05-25T02:17:22.202304Z

Period
95.64 min
Inclination
97.4456°
Eccentricity
0.0002636
Mean motion
15.05645855 rev/d
Perigee alt
547.7 km
Apogee alt
551.3 km
Semi-major
6,927.7 km
B*
-3.9160e-4
RAAN
187.8848°
Arg perigee
113.4590°
Mean anomaly
246.6915°
Rev number
4,328

§ Raw data

STARLINK-349771 65245U 25179L   26145.09539586 -.00005704  00000+0 -39160-3 0  99982 65245  97.4456 187.8848 0002636 113.4590 246.6915 15.05645855 43287

JSON: /api/v1/satellites/65245 · /tle

For live sub-satellite position, see the globe view (requires WebGL).

§ Visibility from observer

Set your observer location to see the next 7 days of passes ≥ 10°. The values pass through the URL so the page stays shareable.

No JS? Fill the form by hand. The geolocation button needs JavaScript.